[[{"header":{"parameterUnit":"m.s-1","parameterCategory":1,"la1":30.2991,"la2":30.254,"lo1":-89.0895,"lo2":-89.0444,"dy":0.0017,"dx":0.0017,"nx":28,"ny":28,"refTime":"2025-01-09T09:00:00:Z","depth":0,"parameterNumber":2,"parameterNumberName":"U-component_of_WINDS"},"data":[0,0,0,0,0,0,0,0,0,0,0,0,0,0,0,0,0,0,0,0,0,0,0,0,0,0,0,0,0,0,0,0,0,0,0,0,0,0,0,0,0,0,0,0,0,0,0,0,0,0,0,0,0,0,0,0,0,0,-7.2021,-7.2022,0,-7.216,-7.2162,-7.2163,-7.2138,-7.2136,-7.2133,-7.2131,-7.2269,-7.2275,-7.2281,0,0,0,0,0,0,0,0,0,0,0,0,0,-7.173,-7.1735,-7.202,-7.2022,-7.2024,-7.216,-7.2162,-7.2163,-7.2139,-7.2136,-7.2133,-7.213,-7.2267,-7.2274,-7.2281,0,0,0,0,0,0,0,0,0,0,0,0,0,-7.1861,-7.1737,-7.202,-7.2028,-7.203,-7.2159,-7.2162,-7.2164,-7.2139,-7.2136,-7.2132,-7.2129,-7.2265,-7.2273,-7.2282,-7.2411,0,0,-7.231,-7.2313,0,0,0,0,0,0,0,0,-7.1854,-7.1872,-7.2025,-7.2028,-7.203,-7.2128,-7.211,-7.2247,-7.214,-7.2098,-7.2131,-7.2127,-7.2225,-7.2237,-7.2271,-7.2417,-7.2423,-7.231,-7.2316,-7.232,-7.2322,0,0,0,0,0,0,0,-7.1845,-7.1866,-7.2075,-7.2027,-7.2031,-7.2024,-7.2038,-7.2136,-7.218,-7.2101,-7.21,-7.2117,-7.2225,-7.2262,-7.2274,-7.2425,-7.231,-7.2318,-7.2324,-7.2327,-7.2683,-7.2687,0,0,0,0,0,0,-7.1834,-7.1858,-7.2071,-7.208,-7.1931,-7.2032,-7.2048,-7.21,-7.2179,-7.2187,-7.212,-7.2115,-7.2249,-7.2263,-7.2279,-7.2432,-7.232,-7.2328,-7.2333,-7.2679,-7.2684,-7.2689,0,0,0,0,0,0,-7.1828,-7.1853,-7.2065,-7.1969,-7.1995,-7.2041,-7.21,-7.2105,-7.2142,-7.2193,-7.22,-7.2149,-7.2247,-7.2266,-7.2378,-7.2437,-7.2332,-7.234,-7.2674,-7.2681,-7.2686,-7.2741,0,0,0,0,0,0,-7.1819,-7.1851,-7.1901,-7.197,-7.2001,-7.2164,-7.2103,-7.211,-7.2158,-7.2153,-7.2223,-7.2231,-7.2245,-7.2365,-7.2387,-7.2447,-7.2347,-7.2669,-7.2677,-7.2684,-7.2734,-7.2749,-7.2761,0,0,0,0,0,-7.1809,-7.191,-7.1903,-7.1929,-7.2064,-7.2167,-7.2184,-7.22,-7.2163,-7.2212,-7.2246,-7.2228,-7.2428,-7.2377,-7.2401,-7.2465,-7.2665,-7.2675,-7.2684,-7.2728,-7.2746,-7.2761,0,0,0,0,0,0,-7.1843,-7.1919,-7.1912,-7.2039,-7.2097,-7.2163,-7.2225,-7.2218,-7.2287,-7.2279,-7.2295,-7.2311,-7.2424,-7.2457,-7.2398,-7.2593,-7.2541,-7.2556,-7.2567,-7.2584,-7.2597,-7.2584,-7.2354,0,0,0,0,0,-7.1867,-7.1945,-7.2006,-7.2112,-7.2142,-7.2179,-7.2225,-7.2232,-7.2292,-7.2316,-7.2358,-7.2415,-7.2491,-7.254,-7.2613,-7.2741,-7.2755,-7.2797,-7.2811,-7.2821,-7.2832,-7.29,-7.2919,-7.2719,-7.2719,-7.2719,0,0,-7.1913,-7.1964,-7.2012,-7.212,-7.2166,-7.2245,-7.2199,-7.2286,-7.2344,-7.2329,-7.2436,-7.247,-7.2535,-7.2656,-7.2711,-7.2686,-7.2891,-7.2833,-7.2841,-7.2846,-7.2912,-7.2931,-7.2947,-7.2725,-7.2724,-7.2723,0,0,-7.2038,-7.2086,-7.2178,-7.2226,-7.2297,-7.2322,-7.2344,-7.2412,-7.2434,-7.2543,-7.2533,-7.2603,-7.2734,-7.278,-7.2821,-7.2968,-7.2953,-7.2992,-7.3058,-7.3125,-7.314,-7.3154,-7.3203,-7.3221,-7.3003,-7.3003,-7.3003,0,-7.2086,-7.2206,-7.2226,-7.2314,-7.2361,-7.2354,-7.2446,-7.2492,-7.2582,-7.2614,-7.2587,-7.275,-7.2794,-7.2925,-7.2961,-7.2996,-7.302,-7.298,-7.3137,-7.3151,-7.3164,-7.3211,-7.323,-7.3007,-7.3007,-7.3006,-7.3006,0,-7.2261,-7.2345,-7.2411,-7.25,-7.2555,-7.2645,-7.2677,-7.2731,-7.2736,-7.2763,-7.2874,-7.2928,-7.301,-7.3043,-7.3048,-7.3174,-7.3156,-7.3134,-7.308,-7.3187,-7.3231,-7.3249,-7.3012,-7.3011,-7.301,-7.3009,0,0,-7.2405,-7.2507,-7.253,-7.2571,-7.265,-7.2715,-7.2805,-7.2888,-7.2932,-7.2996,-7.307,-7.3183,-7.3162,-7.3208,-7.3219,-7.3278,-7.3387,-7.3247,-7.3249,-7.3268,-7.3527,-7.3541,-7.3561,-7.3381,-7.3385,-7.3388,-7.352,0,-7.2534,-7.2693,-7.2715,-7.2855,-7.2932,-7.2928,-7.3007,-7.3063,-7.3093,-7.3161,-7.3194,-7.3271,-7.324,-7.3268,-7.3327,-7.3361,-7.3439,-7.3353,-7.3447,-7.345,-7.3425,-7.3585,-7.3599,-7.3721,-7.3538,-7.3541,-7.3543,0,-7.2704,-7.2774,-7.2922,-7.2992,-7.3025,-7.3095,-7.3172,-7.3239,-7.3304,-7.3321,-7.3375,-7.3379,-7.347,-7.3419,-7.3544,-7.3485,-7.3526,-7.3549,-7.3555,-7.3559,-7.3499,-7.3589,-7.3761,-7.3777,-7.3571,-7.3569,-7.3567,0,-7.279,-7.2922,-7.3027,-7.3062,-7.3147,-7.3196,-7.3233,-7.3295,-7.3343,-7.3412,-7.3443,-7.3521,-7.3563,-7.3623,-7.3647,-7.3608,-7.3771,-7.3721,-7.3785,-7.3784,-7.3814,-7.3811,-7.399,-7.3849,-7.3849,-7.3849,-7.3848,0,-7.2928,-7.3018,-7.3067,-7.3131,-7.3231,-7.3257,-7.3355,-7.339,-7.3446,-7.3516,-7.3519,-7.3585,-7.3616,-7.3686,-7.3706,-7.3805,-7.3825,-7.384,-7.3843,-7.3837,-7.3834,-7.3859,-7.3849,-7.3853,-7.3852,-7.3851,-7.3851,0,-7.3038,-7.3075,-7.3189,-7.3261,-7.3282,-7.3352,-7.3413,-7.3475,-7.3506,-7.3594,-7.3617,-7.3664,-7.3747,-7.3779,-7.388,-7.3894,-7.4007,-7.4006,-7.3985,-7.3985,-7.4045,-7.4037,-7.4242,-7.4269,-7.4115,-7.4116,-7.4117,0,-7.3121,-7.319,-7.3271,-7.3319,-7.3358,-7.3436,-7.3486,-7.3515,-7.3567,-7.3647,-7.3698,-7.3782,-7.3849,-7.3982,-7.4025,-7.4102,-7.41,-7.4167,-7.4111,-7.4102,-7.4096,-7.4089,-7.4095,-7.4175,-7.4176,-7.4178,-7.4179,0,-7.3263,-7.3279,-7.3352,-7.3432,-7.3492,-7.3556,-7.3618,-7.3657,-7.3696,-7.3754,-7.384,-7.3893,-7.3997,-7.4079,-7.4159,-7.4197,-7.4193,-7.4197,-7.4215,-7.4206,-7.4189,-7.4195,-7.4008,-7.4191,-7.4189,-7.4189,-7.4188,-7.4187,-7.3359,-7.342,-7.3486,-7.3568,-7.3618,-7.3677,-7.3738,-7.3778,-7.385,-7.3938,-7.3952,-7.4043,-7.4107,-7.4215,-7.4256,-7.4327,-7.4309,-7.4336,-7.4342,-7.4347,-7.4349,-7.4183,-7.4342,-7.4342,-7.4342,-7.4342,-7.4341,0,-7.3498,-7.3542,-7.3617,-7.3704,-7.3768,-7.3764,-7.3833,-7.3886,-7.3967,-7.4028,-7.4095,-7.4194,-7.4274,-7.4325,-7.4405,-7.4452,-7.4452,-7.4472,-7.4466,-7.4474,-7.4362,-7.4336,-7.447,-7.447,-7.447,-7.447,-7.447,-7.447,-7.3577,-7.3679,-7.3703,-7.383,-7.3873,-7.3963,-7.4003,-7.4057,-7.4105,-7.4215,-7.4283,-7.4316,-7.4373,-7.4458,-7.4531,-7.4544,-7.4571,-7.4592,-7.4602,-7.4495,-7.4482,-7.4469,-7.4445,-7.4599,-7.4599,-7.4707,-7.4708,-7.4709]},{"header":{"parameterUnit":"m.s-1","parameterCategory":1,"la1":30.2991,"la2":30.254,"lo1":-89.0895,"lo2":-89.0444,"dy":0.0017,"dx":0.0017,"nx":28,"ny":28,"refTime":"2025-01-09T09:00:00:Z","depth":0,"parameterNumber":3,"parameterNumberName":"V-component_of_WINDS"},"data":[0,0,0,0,0,0,0,0,0,0,0,0,0,0,0,0,0,0,0,0,0,0,0,0,0,0,0,0,0,0,0,0,0,0,0,0,0,0,0,0,0,0,0,0,0,0,0,0,0,0,0,0,0,0,0,0,0,0,5.5718,5.5719,0,5.5802,5.5803,5.5804,5.5671,5.5667,5.5662,5.5658,5.5745,5.5752,5.5758,0,0,0,0,0,0,0,0,0,0,0,0,0,5.5446,5.5452,5.5718,5.5719,5.572,5.5802,5.5803,5.5804,5.5672,5.5667,5.5661,5.5656,5.5743,5.5751,5.5759,0,0,0,0,0,0,0,0,0,0,0,0,0,5.555,5.5453,5.5718,5.5664,5.566,5.5801,5.5803,5.5804,5.5673,5.5667,5.566,5.5653,5.5741,5.575,5.576,5.5958,0,0,5.579,5.5794,0,0,0,0,0,0,0,0,5.5545,5.5561,5.5671,5.5668,5.5664,5.5719,5.5739,5.5856,5.5675,5.5668,5.5658,5.565,5.5742,5.5751,5.5782,5.5962,5.5966,5.5791,5.5797,5.5801,5.5804,0,0,0,0,0,0,0,5.5538,5.5556,5.5751,5.5673,5.5668,5.5637,5.5644,5.576,5.5743,5.5668,5.5659,5.5671,5.5739,5.5773,5.5783,5.5967,5.5791,5.5799,5.5805,5.5809,5.6315,5.6322,0,0,0,0,0,0,5.5537,5.5551,5.5748,5.5753,5.5586,5.5647,5.5655,5.5708,5.5741,5.5739,5.5677,5.5664,5.576,5.5772,5.5786,5.602,5.5801,5.581,5.5816,5.6308,5.6317,5.6325,0,0,0,0,0,0,5.5531,5.5555,5.5745,5.565,5.5671,5.5659,5.572,5.5714,5.5747,5.5747,5.5743,5.5714,5.5755,5.5772,5.5916,5.6021,5.5815,5.5824,5.6299,5.631,5.6321,5.649,0,0,0,0,0,0,5.5524,5.5554,5.5629,5.5652,5.5677,5.5874,5.5726,5.572,5.5765,5.5749,5.5782,5.5781,5.5751,5.5902,5.5926,5.6031,5.5831,5.6289,5.6304,5.6317,5.6475,5.6506,5.6532,0,0,0,0,0,5.5515,5.5673,5.5633,5.5657,5.577,5.588,5.5894,5.5856,5.5774,5.5849,5.5849,5.578,5.6007,5.5918,5.5944,5.6054,5.6282,5.63,5.6316,5.6463,5.65,5.6532,0,0,0,0,0,0,5.5661,5.5675,5.5631,5.5801,5.5841,5.5857,5.595,5.5897,5.596,5.5943,5.5894,5.5902,5.6057,5.607,5.5971,5.6248,5.6131,5.6154,5.6233,5.6269,5.6297,5.629,5.584,0,0,0,0,0,5.5714,5.5801,5.5809,5.5958,5.598,5.5963,5.6009,5.5977,5.6016,5.6031,5.6042,5.6083,5.6163,5.6217,5.6291,5.6478,5.6483,5.6566,5.6594,5.6618,5.6638,5.6738,5.6775,5.638,5.638,5.638,0,0,5.5822,5.584,5.5898,5.5988,5.6015,5.6108,5.5977,5.608,5.6149,5.6047,5.6183,5.6194,5.6236,5.6403,5.6477,5.6418,5.6749,5.6639,5.6658,5.6665,5.6759,5.6797,5.683,5.6392,5.639,5.6388,0,0,5.6066,5.609,5.6217,5.6247,5.6289,5.6276,5.6308,5.6334,5.6336,5.6473,5.6399,5.648,5.662,5.6653,5.6689,5.695,5.6889,5.6976,5.7124,5.7223,5.7254,5.7281,5.7374,5.7409,5.6996,5.6997,5.6997,0,5.6196,5.6332,5.6289,5.6398,5.644,5.6354,5.6483,5.6514,5.6579,5.6611,5.6544,5.6719,5.6741,5.6915,5.6979,5.7011,5.7045,5.6971,5.7253,5.728,5.7305,5.7393,5.7428,5.7007,5.7006,5.7005,5.7004,0,5.6489,5.6585,5.6683,5.6748,5.6801,5.692,5.6897,5.6957,5.6921,5.6916,5.7058,5.7082,5.716,5.7199,5.7165,5.7369,5.7332,5.7261,5.7141,5.7353,5.7435,5.7469,5.7021,5.7018,5.7015,5.7012,0,0,5.6824,5.6867,5.6903,5.6932,5.6974,5.7048,5.7164,5.724,5.7293,5.7341,5.7438,5.7559,5.7494,5.7535,5.7504,5.7591,5.7797,5.7509,5.7509,5.7561,5.8024,5.8077,5.8117,5.7758,5.7764,5.7769,5.8021,0,5.7068,5.7267,5.7234,5.7427,5.7516,5.7436,5.7538,5.7575,5.7575,5.7651,5.7651,5.7738,5.7645,5.7669,5.7752,5.7755,5.7889,5.7736,5.7847,5.7852,5.7838,5.8159,5.8215,5.845,5.8052,5.8058,5.8062,0,5.7377,5.7437,5.764,5.767,5.7706,5.7797,5.7865,5.7939,5.7981,5.7975,5.8022,5.7976,5.8093,5.7975,5.8136,5.8033,5.8077,5.8086,5.8094,5.8101,5.7968,5.8175,5.8525,5.856,5.8112,5.8108,5.8104,0,5.7601,5.7733,5.7872,5.7899,5.7937,5.8004,5.8023,5.8058,5.8107,5.8168,5.8199,5.8273,5.8313,5.8372,5.8348,5.8264,5.8515,5.8393,5.8513,5.8514,5.8567,5.8564,5.8928,5.8598,5.8598,5.8597,5.8597,0,5.7875,5.8002,5.7973,5.8058,5.8199,5.8161,5.8301,5.8311,5.8344,5.843,5.8367,5.845,5.8413,5.8494,5.8477,5.8614,5.8632,5.8631,5.8625,5.8636,5.8636,5.8663,5.8646,5.8607,5.8605,5.8603,5.8601,0,5.8148,5.8134,5.8279,5.8305,5.8314,5.8417,5.8438,5.8519,5.8515,5.8625,5.8649,5.8643,5.8735,5.8718,5.882,5.8808,5.8979,5.8953,5.8965,5.8958,5.9078,5.9067,5.9471,5.9523,5.9161,5.9164,5.9167,0,5.8322,5.8418,5.8455,5.8508,5.8532,5.8619,5.8669,5.8637,5.8691,5.8748,5.8822,5.8909,5.8976,5.9127,5.9132,5.9211,5.9185,5.9322,5.9196,5.9206,5.9187,5.9181,5.9191,5.9346,5.935,5.9353,5.9356,0,5.8635,5.8624,5.8697,5.8771,5.8832,5.8888,5.8938,5.8986,5.8958,5.9023,5.9116,5.9169,5.9274,5.9361,5.9434,5.9454,5.9402,5.9396,5.9428,5.944,5.9442,5.9442,5.9031,5.9386,5.9383,5.9381,5.9379,5.9378,5.8863,5.8945,5.8984,5.9069,5.9104,5.9153,5.923,5.9237,5.9314,5.9396,5.9373,5.948,5.9521,5.9614,5.9644,5.9727,5.9677,5.9723,5.9734,5.9746,5.976,5.9431,5.9741,5.974,5.9739,5.9738,5.9738,0,5.9171,5.9193,5.9272,5.9344,5.9413,5.9358,5.9411,5.9471,5.9566,5.9609,5.9677,5.9786,5.9871,5.9885,5.9966,6.003,6.0008,6.0053,6.0047,6.0053,5.9801,5.9765,6.0069,6.0069,6.0069,6.0069,6.0069,6.0069,5.934,5.9476,5.947,5.9624,5.9645,5.9749,5.9784,5.9829,5.9864,5.9988,6.0058,6.0067,6.0099,6.0182,6.0258,6.026,6.0293,6.0347,6.0339,6.0103,6.007,6.0039,6.0005,6.0354,6.0355,6.0584,6.0586,6.0588]}]]